[[{"header":{"parameterUnit":"m.s-1","parameterCategory":1,"la1":30.2991,"la2":30.254,"lo1":-89.0895,"lo2":-89.0444,"dy":0.0017,"dx":0.0017,"nx":28,"ny":28,"refTime":"2025-09-02T09:00:00:Z","depth":0,"parameterNumber":2,"parameterNumberName":"U-component_of_WINDS"},"data":[0,0,0,0,0,0,0,0,0,0,0,0,0,0,0,0,0,0,0,0,0,0,0,0,0,0,0,0,0,0,0,0,0,0,0,0,0,0,0,0,0,0,0,0,0,0,0,0,0,0,0,0,0,0,0,0,0,0,-2.2865,-2.2865,0,-2.2894,-2.2895,-2.2895,-2.2822,-2.282,-2.2818,-2.2816,-2.2844,-2.2847,-2.285,0,0,0,0,0,0,0,0,0,0,0,0,0,-2.2744,-2.2747,-2.2865,-2.2866,-2.2866,-2.2894,-2.2895,-2.2895,-2.2823,-2.282,-2.2817,-2.2815,-2.2843,-2.2847,-2.285,0,0,0,0,0,0,0,0,0,0,0,0,0,-2.2788,-2.2748,-2.2865,-2.2833,-2.2831,-2.2894,-2.2895,-2.2895,-2.2823,-2.282,-2.2816,-2.2813,-2.2842,-2.2846,-2.2851,-2.2946,0,0,-2.2864,-2.2866,0,0,0,0,0,0,0,0,-2.2785,-2.2792,-2.2838,-2.2836,-2.2833,-2.2851,-2.2863,-2.2912,-2.2824,-2.2826,-2.2816,-2.2812,-2.2849,-2.2853,-2.2866,-2.2947,-2.2949,-2.2864,-2.2867,-2.2869,-2.287,0,0,0,0,0,0,0,-2.2782,-2.279,-2.2877,-2.2838,-2.2835,-2.2817,-2.2819,-2.2872,-2.2856,-2.2826,-2.282,-2.2825,-2.2847,-2.2862,-2.2866,-2.2949,-2.2864,-2.2868,-2.2871,-2.2872,-2.3109,-2.3113,0,0,0,0,0,0,-2.2784,-2.2788,-2.2876,-2.2877,-2.28,-2.2822,-2.2824,-2.2849,-2.2856,-2.2853,-2.2828,-2.2821,-2.2856,-2.2861,-2.2867,-2.2978,-2.2869,-2.2873,-2.2875,-2.3106,-2.311,-2.3114,0,0,0,0,0,0,-2.2781,-2.2792,-2.2874,-2.2832,-2.2841,-2.2827,-2.2855,-2.2851,-2.2866,-2.2857,-2.2854,-2.2846,-2.2853,-2.286,-2.2927,-2.2978,-2.2875,-2.2879,-2.3101,-2.3107,-2.3112,-2.3203,0,0,0,0,0,0,-2.2778,-2.2792,-2.2828,-2.2833,-2.2843,-2.2935,-2.2859,-2.2854,-2.2873,-2.2865,-2.2873,-2.2871,-2.2851,-2.2921,-2.2931,-2.2982,-2.2882,-2.3097,-2.3104,-2.311,-2.3195,-2.3211,-2.3224,0,0,0,0,0,-2.2774,-2.2853,-2.2831,-2.2842,-2.2889,-2.2938,-2.2944,-2.292,-2.2878,-2.2914,-2.2909,-2.2871,-2.2971,-2.2928,-2.2939,-2.2992,-2.3093,-2.3102,-2.311,-2.3188,-2.3208,-2.3224,0,0,0,0,0,0,-2.2854,-2.2853,-2.2828,-2.2911,-2.2925,-2.2926,-2.2971,-2.2941,-2.2967,-2.2959,-2.2927,-2.2929,-2.3001,-2.3003,-2.2956,-2.3085,-2.3025,-2.3036,-2.3081,-2.3099,-2.3113,-2.3111,-2.2886,0,0,0,0,0,-2.2881,-2.2922,-2.2918,-2.2991,-2.3,-2.2985,-2.3005,-2.2985,-2.2999,-2.3004,-2.3004,-2.3018,-2.3052,-2.3076,-2.3107,-2.3195,-2.3195,-2.3237,-2.3252,-2.3263,-2.3273,-2.3319,-2.3337,-2.3142,-2.3141,-2.3141,0,0,-2.2938,-2.2942,-2.297,-2.3007,-2.3016,-2.3058,-2.299,-2.3038,-2.3068,-2.3011,-2.3074,-2.3074,-2.3088,-2.3165,-2.3199,-2.3169,-2.3327,-2.3274,-2.3284,-2.3287,-2.3329,-2.3348,-2.3365,-2.3147,-2.3146,-2.3145,0,0,-2.3062,-2.307,-2.3131,-2.3142,-2.3156,-2.3145,-2.316,-2.3166,-2.3164,-2.3226,-2.3184,-2.322,-2.328,-2.3291,-2.3305,-2.3433,-2.3399,-2.3444,-2.352,-2.3565,-2.358,-2.3594,-2.3639,-2.3656,-2.3454,-2.3454,-2.3455,0,-2.313,-2.3193,-2.3166,-2.3217,-2.3235,-2.3185,-2.3247,-2.3258,-2.3282,-2.3295,-2.3261,-2.3335,-2.3341,-2.342,-2.3451,-2.3464,-2.3479,-2.3443,-2.358,-2.3594,-2.3606,-2.3649,-2.3666,-2.346,-2.3459,-2.3459,-2.3458,0,-2.3276,-2.332,-2.3368,-2.3392,-2.3415,-2.3471,-2.3452,-2.3478,-2.3457,-2.3449,-2.3513,-2.3518,-2.3549,-2.3567,-2.3546,-2.3643,-2.3624,-2.3586,-2.3525,-2.363,-2.367,-2.3686,-2.3467,-2.3466,-2.3464,-2.3463,0,0,-2.3451,-2.3461,-2.3479,-2.3489,-2.3501,-2.3534,-2.3588,-2.3619,-2.3641,-2.3659,-2.3703,-2.3755,-2.372,-2.3735,-2.3715,-2.3755,-2.3856,-2.3712,-2.3712,-2.3738,-2.3962,-2.399,-2.401,-2.3833,-2.3836,-2.3839,-2.3961,0,-2.3574,-2.3666,-2.3643,-2.3734,-2.3774,-2.3728,-2.3774,-2.3786,-2.3781,-2.3813,-2.3806,-2.3844,-2.3795,-2.3804,-2.3841,-2.3836,-2.39,-2.3826,-2.3872,-2.3874,-2.387,-2.403,-2.406,-2.4175,-2.3976,-2.3979,-2.398,0,-2.3729,-2.3753,-2.3848,-2.3854,-2.387,-2.3912,-2.3938,-2.397,-2.3982,-2.3975,-2.3993,-2.3965,-2.4017,-2.3956,-2.4026,-2.3977,-2.3994,-2.3994,-2.3998,-2.4001,-2.3934,-2.4037,-2.4211,-2.4228,-2.4005,-2.4003,-2.4001,0,-2.3847,-2.3903,-2.3967,-2.3978,-2.3986,-2.4016,-2.4021,-2.403,-2.405,-2.4073,-2.4085,-2.4114,-2.4129,-2.4152,-2.4132,-2.4089,-2.4205,-2.4143,-2.42,-2.4201,-2.4226,-2.4225,-2.4405,-2.4239,-2.4238,-2.4238,-2.4238,0,-2.3985,-2.4045,-2.402,-2.4059,-2.4125,-2.4098,-2.4163,-2.4162,-2.4171,-2.4209,-2.417,-2.4207,-2.4178,-2.4212,-2.4197,-2.4257,-2.4264,-2.426,-2.4255,-2.4263,-2.4263,-2.4273,-2.4265,-2.4243,-2.4242,-2.4241,-2.424,0,-2.4128,-2.4113,-2.418,-2.4182,-2.4184,-2.4232,-2.4234,-2.427,-2.4261,-2.431,-2.4319,-2.4306,-2.4344,-2.4326,-2.4365,-2.4355,-2.4432,-2.4417,-2.4428,-2.4424,-2.4482,-2.4477,-2.4675,-2.4699,-2.4518,-2.452,-2.4521,0,-2.4217,-2.4262,-2.4269,-2.4292,-2.4299,-2.4337,-2.4357,-2.4332,-2.4354,-2.4372,-2.4406,-2.444,-2.4466,-2.4528,-2.4521,-2.4551,-2.4536,-2.4603,-2.454,-2.4546,-2.4536,-2.4533,-2.4537,-2.4616,-2.4618,-2.4619,-2.4621,0,-2.4377,-2.4367,-2.4398,-2.4427,-2.4452,-2.4473,-2.4491,-2.4512,-2.4487,-2.4514,-2.4552,-2.4573,-2.4613,-2.4647,-2.4673,-2.4676,-2.4645,-2.4641,-2.4656,-2.4664,-2.4668,-2.4666,-2.4462,-2.4636,-2.4635,-2.4634,-2.4633,-2.4632,-2.4495,-2.4532,-2.4543,-2.4578,-2.4589,-2.4607,-2.4641,-2.4637,-2.4668,-2.4699,-2.4682,-2.4727,-2.4737,-2.4769,-2.4777,-2.4811,-2.4784,-2.4805,-2.4811,-2.4816,-2.4824,-2.4664,-2.4815,-2.4815,-2.4814,-2.4814,-2.4814,0,-2.4652,-2.4656,-2.4689,-2.4716,-2.4743,-2.4712,-2.4729,-2.4755,-2.4794,-2.4807,-2.4834,-2.4877,-2.491,-2.4906,-2.4936,-2.4964,-2.495,-2.4973,-2.497,-2.4971,-2.4846,-2.483,-2.4983,-2.4983,-2.4983,-2.4983,-2.4983,-2.4983,-2.4737,-2.4798,-2.479,-2.4857,-2.4861,-2.4904,-2.4917,-2.4933,-2.4943,-2.4993,-2.5021,-2.5018,-2.5024,-2.5054,-2.5083,-2.5081,-2.5093,-2.5121,-2.5114,-2.4997,-2.498,-2.4964,-2.4949,-2.5124,-2.5124,-2.5236,-2.5237,-2.5237]},{"header":{"parameterUnit":"m.s-1","parameterCategory":1,"la1":30.2991,"la2":30.254,"lo1":-89.0895,"lo2":-89.0444,"dy":0.0017,"dx":0.0017,"nx":28,"ny":28,"refTime":"2025-09-02T09:00:00:Z","depth":0,"parameterNumber":3,"parameterNumberName":"V-component_of_WINDS"},"data":[0,0,0,0,0,0,0,0,0,0,0,0,0,0,0,0,0,0,0,0,0,0,0,0,0,0,0,0,0,0,0,0,0,0,0,0,0,0,0,0,0,0,0,0,0,0,0,0,0,0,0,0,0,0,0,0,0,0,-1.2966,-1.2967,0,-1.3093,-1.3094,-1.3096,-1.3182,-1.3183,-1.3183,-1.3184,-1.3314,-1.3317,-1.332,0,0,0,0,0,0,0,0,0,0,0,0,0,-1.2796,-1.2799,-1.2965,-1.2967,-1.2969,-1.3093,-1.3094,-1.3096,-1.3182,-1.3183,-1.3184,-1.3184,-1.3313,-1.3317,-1.332,0,0,0,0,0,0,0,0,0,0,0,0,0,-1.2891,-1.28,-1.2965,-1.3026,-1.3033,-1.3092,-1.3095,-1.3097,-1.3182,-1.3183,-1.3184,-1.3185,-1.3312,-1.3316,-1.3321,-1.3329,0,0,-1.3334,-1.3336,0,0,0,0,0,0,0,0,-1.2886,-1.2897,-1.3016,-1.3022,-1.303,-1.3123,-1.3083,-1.3175,-1.3182,-1.3125,-1.3184,-1.3185,-1.325,-1.3259,-1.3281,-1.3335,-1.3341,-1.3334,-1.3337,-1.3339,-1.334,0,0,0,0,0,0,0,-1.2879,-1.2892,-1.3016,-1.3017,-1.3026,-1.3048,-1.3062,-1.3101,-1.3181,-1.313,-1.3137,-1.3151,-1.3254,-1.3277,-1.3285,-1.3343,-1.3334,-1.3338,-1.3341,-1.3342,-1.341,-1.3409,0,0,0,0,0,0,-1.2863,-1.2886,-1.3012,-1.302,-1.2959,-1.305,-1.3066,-1.3092,-1.3181,-1.3195,-1.315,-1.3154,-1.3269,-1.328,-1.329,-1.3305,-1.3339,-1.3343,-1.3345,-1.3411,-1.341,-1.3409,0,0,0,0,0,0,-1.2859,-1.2873,-1.3007,-1.2955,-1.2974,-1.3052,-1.308,-1.3094,-1.3117,-1.3195,-1.321,-1.3159,-1.327,-1.3284,-1.3319,-1.3311,-1.3345,-1.3349,-1.3411,-1.341,-1.3409,-1.3335,0,0,0,0,0,0,-1.2854,-1.2871,-1.2875,-1.2954,-1.2976,-1.3033,-1.308,-1.3096,-1.3124,-1.3131,-1.3207,-1.3221,-1.3272,-1.3312,-1.3323,-1.3317,-1.3352,-1.3412,-1.3411,-1.3409,-1.3339,-1.3331,-1.3325,0,0,0,0,0,-1.2847,-1.2849,-1.2875,-1.289,-1.2982,-1.3032,-1.3045,-1.3103,-1.3123,-1.3128,-1.3178,-1.3219,-1.331,-1.3314,-1.3328,-1.3323,-1.3413,-1.3411,-1.341,-1.3341,-1.3333,-1.3326,0,0,0,0,0,0,-1.2767,-1.2861,-1.289,-1.2918,-1.2966,-1.3047,-1.3054,-1.3092,-1.3136,-1.3141,-1.3212,-1.3228,-1.3256,-1.3294,-1.3297,-1.3336,-1.3366,-1.3367,-1.331,-1.3303,-1.3296,-1.3286,-1.3356,0,0,0,0,0,-1.2753,-1.2785,-1.2866,-1.2882,-1.2905,-1.2975,-1.2999,-1.304,-1.3093,-1.3114,-1.3168,-1.3217,-1.3258,-1.3283,-1.3324,-1.3345,-1.3363,-1.3349,-1.3342,-1.3336,-1.3336,-1.3349,-1.3344,-1.3403,-1.3403,-1.3403,0,0,-1.2723,-1.2778,-1.2794,-1.2867,-1.291,-1.2942,-1.2992,-1.3024,-1.3049,-1.3119,-1.3155,-1.3196,-1.3257,-1.3284,-1.33,-1.3317,-1.3323,-1.3334,-1.3329,-1.3331,-1.3347,-1.3341,-1.3336,-1.3401,-1.3402,-1.3402,0,0,-1.2685,-1.273,-1.2749,-1.279,-1.2854,-1.2901,-1.2905,-1.298,-1.301,-1.3047,-1.3101,-1.3132,-1.3199,-1.324,-1.327,-1.3248,-1.3286,-1.3259,-1.3224,-1.3237,-1.3232,-1.3228,-1.3219,-1.3216,-1.3259,-1.3259,-1.3258,0,-1.264,-1.269,-1.2753,-1.2782,-1.2813,-1.2879,-1.2898,-1.2935,-1.3009,-1.3028,-1.3047,-1.3133,-1.3179,-1.3217,-1.3211,-1.3234,-1.324,-1.325,-1.3228,-1.3225,-1.3222,-1.3214,-1.3211,-1.3255,-1.3255,-1.3256,-1.3256,0,-1.2631,-1.2666,-1.2673,-1.2742,-1.2774,-1.2797,-1.2864,-1.2889,-1.2927,-1.2972,-1.3009,-1.3066,-1.312,-1.3132,-1.317,-1.3176,-1.3184,-1.3214,-1.3246,-1.3211,-1.3205,-1.3203,-1.3249,-1.3251,-1.3252,-1.3253,0,0,-1.2545,-1.2649,-1.2651,-1.2683,-1.2759,-1.2786,-1.2813,-1.2866,-1.2885,-1.2934,-1.2958,-1.3014,-1.3043,-1.3076,-1.3119,-1.313,-1.3108,-1.3159,-1.3162,-1.3147,-1.3117,-1.3093,-1.3089,-1.3135,-1.3135,-1.3134,-1.3112,0,-1.2517,-1.2569,-1.2627,-1.2658,-1.269,-1.2754,-1.2777,-1.2826,-1.2869,-1.2902,-1.295,-1.2988,-1.3023,-1.3044,-1.3058,-1.3108,-1.3103,-1.3111,-1.3157,-1.3158,-1.3138,-1.3086,-1.3061,-1.3036,-1.311,-1.311,-1.3109,0,-1.2492,-1.2537,-1.2571,-1.2644,-1.266,-1.268,-1.2733,-1.2764,-1.2821,-1.2852,-1.2889,-1.2935,-1.2967,-1.2996,-1.304,-1.3044,-1.3067,-1.3094,-1.3095,-1.31,-1.313,-1.3088,-1.303,-1.3026,-1.3107,-1.3107,-1.3107,0,-1.2424,-1.2494,-1.2524,-1.2549,-1.2635,-1.2647,-1.2684,-1.2742,-1.277,-1.2816,-1.2835,-1.2885,-1.2911,-1.2949,-1.3007,-1.3023,-1.3045,-1.3079,-1.307,-1.3069,-1.3071,-1.3069,-1.3013,-1.3087,-1.3088,-1.3088,-1.3088,0,-1.2386,-1.2404,-1.2494,-1.2512,-1.2534,-1.2601,-1.2621,-1.2663,-1.2714,-1.2742,-1.28,-1.2825,-1.2901,-1.2935,-1.2981,-1.301,-1.3022,-1.3047,-1.3059,-1.3041,-1.3037,-1.3056,-1.3058,-1.3087,-1.3087,-1.3087,-1.3087,0,-1.2313,-1.2374,-1.241,-1.2489,-1.2509,-1.2522,-1.2589,-1.2609,-1.2655,-1.2689,-1.2701,-1.2774,-1.2816,-1.2879,-1.294,-1.2971,-1.2993,-1.3013,-1.2973,-1.298,-1.2968,-1.2967,-1.292,-1.2917,-1.2993,-1.2993,-1.2992,0,-1.2284,-1.23,-1.238,-1.2402,-1.2436,-1.2472,-1.2501,-1.2567,-1.2595,-1.2661,-1.2673,-1.272,-1.2761,-1.2826,-1.2884,-1.2931,-1.2952,-1.2933,-1.296,-1.2941,-1.295,-1.2948,-1.295,-1.2925,-1.2924,-1.2923,-1.2922,0,-1.2226,-1.2256,-1.2295,-1.2344,-1.2377,-1.242,-1.2465,-1.248,-1.2557,-1.2585,-1.2629,-1.2661,-1.2723,-1.2769,-1.2824,-1.2862,-1.2905,-1.2914,-1.2914,-1.2895,-1.2871,-1.2883,-1.2954,-1.2914,-1.2915,-1.2916,-1.2916,-1.2916,-1.2174,-1.219,-1.2249,-1.229,-1.2332,-1.2373,-1.2395,-1.2444,-1.2482,-1.2538,-1.2576,-1.2617,-1.2675,-1.2753,-1.2789,-1.2823,-1.2841,-1.2842,-1.2842,-1.284,-1.2833,-1.2867,-1.2833,-1.2834,-1.2834,-1.2834,-1.2835,0,-1.2117,-1.2158,-1.2196,-1.2257,-1.229,-1.2328,-1.2381,-1.2405,-1.2441,-1.2491,-1.253,-1.2581,-1.2626,-1.2688,-1.2737,-1.2752,-1.2773,-1.2763,-1.2762,-1.2769,-1.2815,-1.2809,-1.2745,-1.2745,-1.2745,-1.2745,-1.2745,-1.2745,-1.2092,-1.2121,-1.2158,-1.2208,-1.225,-1.2291,-1.2317,-1.2355,-1.2395,-1.2449,-1.2486,-1.2527,-1.2582,-1.2636,-1.2679,-1.2696,-1.2711,-1.2694,-1.2717,-1.2758,-1.2766,-1.2774,-1.2769,-1.2697,-1.2697,-1.2669,-1.2669,-1.2668]}]]